Location: Star Hoppers Observatory
(42.7905°N, 83.6127°W)
Time: 19:54:52
(UTC-04:00)

NOSS 3-1 (A) - Visible Passes

Search period start: 21 August 2014 00:00
Search period end: 31 August 2014 00:00
Orbit: 896 x 1317 km, 63.4° (Epoch: 18 August)

Date Brightness Start Highest point End Pass type
(mag) Time Alt. Az. Time Alt. Az. Time Alt. Az.
21 Aug 4.6 00:17:21 10° NW 00:24:24 42° WSW 00:24:34 42° WSW visible
21 Aug 4.8 21:41:39 10° NNW 21:48:26 38° NE 21:53:51 17° E visible
21 Aug 4.1 23:32:25 10° NW 23:39:52 63° WSW 23:41:17 55° SSW visible
22 Aug 6.1 01:26:52 10° W 01:28:44 12° W 01:28:44 12° W visible
22 Aug 5.1 20:57:08 10° NNW 21:03:18 28° NE 21:09:53 10° E visible
22 Aug 3.9 22:47:40 10° NW 22:55:12 90° NE 22:58:03 45° SE visible
23 Aug 5.6 00:40:05 10° WNW 00:45:29 21° WSW 00:45:29 21° WSW visible
23 Aug 4.1 22:03:02 10° NNW 22:10:26 65° NE 22:14:51 29° ESE visible
23 Aug 5.0 23:54:32 10° NW 00:01:08 33° WSW 00:02:18 31° SW visible
24 Aug 4.5 21:18:27 10° NNW 21:25:31 46° NE 21:31:43 16° ESE visible
24 Aug 4.5 23:09:26 10° NW 23:16:40 50° WSW 23:19:10 38° SSW visible
25 Aug 4.1 22:24:35 10° NW 22:32:05 73° WSW 22:36:06 33° SSE visible
26 Aug 5.9 00:17:58 10° WNW 00:22:05 15° WSW 00:23:33 15° WSW visible
26 Aug 4.0 21:39:53 10° NW 21:47:23 80° NE 21:53:06 22° SE visible
26 Aug 5.5 23:31:52 10° WNW 23:37:50 25° WSW 23:40:33 21° SW visible
27 Aug 4.3 20:55:16 10° NNW 21:02:34 57° NE 21:10:10 11° SE visible
27 Aug 5.0 22:46:32 10° NW 22:53:26 39° WSW 22:57:38 23° SSW visible
28 Aug 4.5 22:01:33 10° NW 22:08:56 58° WSW 22:14:47 19° S visible
28 Aug 6.3 23:57:17 10° W 23:58:39 11° WSW 00:00:01 10° WSW visible
29 Aug 4.1 21:16:46 10° NW 21:24:18 84° WSW 21:32:01 12° SSE visible
29 Aug 5.9 23:09:29 10° WNW 23:14:28 19° WSW 23:19:31 10° SSW visible
30 Aug 4.1 20:32:06 10° NNW 20:39:33 70° NE 20:47:35 10° SE visible
30 Aug 5.5 22:23:46 10° NW 22:30:10 30° WSW 22:36:52 10° SSW visible
